Tracking 30074 objects as of 14-Jan-2025
HD Live streaming from Space Station
objects crossing your sky now

IRIDIUM 117

Track IRIDIUM 117 now!
10-day predictions
IRIDIUM 117 is classified as:


NORAD ID: 42808
Int'l Code: 2017-039F
Perigee: 783.5 km
Apogee: 786.1 km
Inclination: 86.4 °
Period: 100.4 minutes
Semi major axis: 7155 km
RCS: Unknown
Launch date: June 25, 2017
Source: United States (US)
Launch site: AIR FORCE WESTERN TEST RANGE (AFWTR)
Your satellite tracking list
Your tracking list is empty




NASA's NSSDC Master Catalog

Two Line Element Set (TLE):
1 42808U 17039F   25013.83618653  .00000147  00000-0  45491-4 0  9992
2 42808  86.3971 210.5993 0001861  99.0645 261.0761 14.34216838395534
Source of the keplerian elements: AFSPC